CZ-4C DEB, 42670

Orbit data source: Space-Track

CZ-4C DEB, 42670 is space debris in SSO originally from a launch on Thu, 26 Nov 2015 UTC launched from the Taiyaun Space Center, China (TSC). Debris objects in space refer to the collection of defunct objects orbiting the Earth. Examples of debris include non-operational satellites, rocket bodies, and fragments generated from explosions, collisions, or faulty payload assembly.

Loading next visibility...
Identifier
42670, 2015-069C
Orbit
SSO
Country
Flag of CNCN / PRC
Related business
Manufacturer
Unknown
Mission
Spacecraft
Bus & Motor
Unknown
Mass
Unknown
Launch date (UTC)
2015-11-26 (10 years ago)
Launch vehicle
Unknown
Launch site
Taiyaun Space Center, China (TSC)
Object type
Payload
Rocket body
Debris
Shape & HBR
Unknown shape, 0.1 m
Radar Cross Section
Small (<0.1 m²)

Expand to show TLE details & history
Last TLE update: 3 days ago

TLE from 3 days ago
0 CZ-4C DEB
1 42670U 15069C   26031.89987873  .00007773  00000-0  25493-3 0  9991
2 42670  97.4948 101.0278 0057082 286.7008  72.7973 15.30313843512211
Epoch: 2026-01-31T21:35Z
TLE epoch observation values (Epoch: 2026-01-31T21:35:49.522Z)
Latitude
0.00008°
Longitude
5.95421°
Altitude
466.609 km
Speed
7.639 km/s
True Right ascension
06h 44m 06s
True Declination
0° 00' 00"
Sunlit
Object was in full shadow at epoch
Visualization orbit readout
Latitude
Unknown
Longitude
Unknown
Altitude
Unknown
Speed
Unknown
Apparent Right ascension
Unknown
Apparent Declination
Unknown
Sunlit
N/A
Visualization observer readout
Local Sidereal Time
18:56:43
Azimuth
Unknown
Elevation
Unknown
Doppler factor
Unknown
Orbital elements
Apogee altitude
510.932 km
Perigee altitude
432.73 km
Semi-major axis
6,849.968 km
Eccentricity
0.00571
Inclination
97.4948°
RAAN
101.0278°
Arg. of periapsis
286.7008°
True anomaly
73.42346°
Mean anomaly
72.7973°
Eccentric anomaly
73.11025°
Mean motion
3.82834 °/min
Orbital period
94.04 mins
BSTAR
0.00025493
Loading maneuver chart data...
Computing Atmospheric mass density...
Loading historical data...
Loading historical data...
Loading historical data...
Loading historical data...
Loading historical data...
Loading historical data...
Loading historical data...
Other satellites on launch #69 in the year 2015 (2015-11-26 UTC)

Documentation

Showing up to 5 results
|